Location: Mohawk View
(42.7837°N, 73.7885°W)
Time: 07:42:35
(UTC+00:00)

Meteor 1-24 Rocket - Pass Details

Date: 28 October 2021
Orbit: 790 x 927 km, 81.3° (Epoch: 27 November)

Event Time Altitude Azimuth Distance (km) Brightness Sun altitude
Rises 10:14:20 0° 197° (SSW) 3,286 6.7 -13.4°
Reaches altitude 10° 10:16:42 10° 200° (SSW) 2,371 5.9 -13.0°
Maximum altitude 10:22:00 65° 282° (WNW) 899 3.6 -12.0°
Drops below altitude 10° 10:27:31 10° 4° (N) 2,460 6.1 -11.0°
Sets 10:30:00 0° 8° (N) 3,420 6.9 -10.6°
